• In Hungary
  • List of Countries
  • For 7 days
  • Water Temperature
  • Satellite Maps
  • Weather Map
  • News
  • Weather Widgets
  • user-avatar
    Login

    Hourly Weather Jablon

    Today, 23 October, Monday

    Time Temperature Precipitation Wind Pressure Humidity
    00:00 +5°C° 0.2 mm 3 mps 748 mmHg 89%
    01:00 +5°C° 0 mm 3 mps 748 mmHg 90%
    02:00 +5°C° 0.2 mm 3 mps 747 mmHg 90%
    03:00 +5°C° 0.2 mm 3 mps 747 mmHg 90%
    04:00 +5°C° 0.2 mm 3 mps 747 mmHg 91%
    05:00 +5°C° 0.2 mm 3 mps 747 mmHg 91%
    06:00 +5°C° 0.2 mm 3 mps 747 mmHg 91%
    07:00 +4°C° 0 mm 3 mps 748 mmHg 90%
    08:00 +4°C° 0.3 mm 3 mps 748 mmHg 90%
    09:00 +4°C° 0.3 mm 3 mps 748 mmHg 89%
    10:00 +5°C° 0.3 mm 3 mps 748 mmHg 89%
    11:00 +5°C° 0.2 mm 3 mps 749 mmHg 88%
    12:00 +5°C° 0.2 mm 3 mps 749 mmHg 87%
    13:00 +5°C° 0 mm 3 mps 749 mmHg 86%
    14:00 +5°C° 0.1 mm 3 mps 749 mmHg 85%
    15:00 +5°C° 0.1 mm 3 mps 750 mmHg 85%
    16:00 +5°C° 0.1 mm 3 mps 750 mmHg 85%
    17:00 +4°C° 0 mm 3 mps 751 mmHg 84%
    18:00 +4°C° 0 mm 3 mps 751 mmHg 83%
    19:00 +4°C° 0 mm 3 mps 752 mmHg 83%
    20:00 +4°C° 0 mm 3 mps 752 mmHg 82%
    21:00 +4°C° 0 mm 3 mps 753 mmHg 82%
    22:00 +4°C° 0 mm 3 mps 753 mmHg 81%
    23:00 +3°C° 0 mm 3 mps 753 mmHg 82%

    Tomorrow, 24 October, Tuesday

    Time Temperature Precipitation Wind Pressure Humidity
    00:00 +3°C° 0 mm 3 mps 754 mmHg 82%
    01:00 +3°C° 0 mm 3 mps 754 mmHg 83%
    02:00 +2°C° 0 mm 3 mps 755 mmHg 84%
    03:00 +2°C° 0 mm 3 mps 755 mmHg 85%
    04:00 +1°C° 0 mm 3 mps 755 mmHg 85%
    05:00 +1°C° 0 mm 3 mps 756 mmHg 86%
    06:00 +1°C° 0 mm 3 mps 756 mmHg 87%
    07:00 0°C° 0 mm 3 mps 757 mmHg 87%
    08:00 +1°C° 0 mm 3 mps 757 mmHg 83%
    09:00 +2°C° 0 mm 3 mps 758 mmHg 79%
    10:00 +3°C° 0 mm 3 mps 758 mmHg 74%
    11:00 +4°C° 0 mm 3 mps 758 mmHg 71%
    12:00 +5°C° 0 mm 3 mps 758 mmHg 67%
    13:00 +7°C° 0 mm 3 mps 758 mmHg 64%
    14:00 +6°C° 0 mm 2 mps 758 mmHg 67%
    15:00 +6°C° 0 mm 2 mps 758 mmHg 70%
    16:00 +5°C° 0 mm 2 mps 758 mmHg 73%
    17:00 +5°C° 0 mm 2 mps 758 mmHg 75%
    18:00 +4°C° 0 mm 2 mps 759 mmHg 76%
    19:00 +3°C° 0 mm 3 mps 759 mmHg 77%
    20:00 +3°C° 0 mm 3 mps 759 mmHg 77%
    21:00 +3°C° 0 mm 3 mps 759 mmHg 76%
    22:00 +1°C° 0 mm 4 mps 759 mmHg 76%
    23:00 +1°C° 0 mm 4 mps 759 mmHg 77%

    Day after tomorrow, 25 October, Wednesday

    Time Temperature Precipitation Wind Pressure Humidity
    00:00 +2°C° 0 mm 3 mps 759 mmHg 77%
    01:00 +2°C° 0 mm 3 mps 759 mmHg 77%
    02:00 +1°C° 0 mm 4 mps 759 mmHg 79%
    03:00 +1°C° 0 mm 4 mps 758 mmHg 81%
    04:00 +1°C° 0 mm 4 mps 758 mmHg 82%
    05:00 +1°C° 0 mm 4 mps 758 mmHg 82%
    06:00 +1°C° 0 mm 5 mps 758 mmHg 82%
    07:00 +1°C° 0 mm 5 mps 757 mmHg 82%
    08:00 +2°C° 0.1 mm 6 mps 757 mmHg 79%
    09:00 +3°C° 0.1 mm 6 mps 757 mmHg 76%
    10:00 +3°C° 0.1 mm 7 mps 757 mmHg 73%
    11:00 +3°C° 1.2 mm 7 mps 756 mmHg 74%
    12:00 +3°C° 1.2 mm 7 mps 755 mmHg 76%
    13:00 +3°C° 1.2 mm 7 mps 754 mmHg 78%
    14:00 +3°C° 0.9 mm 7 mps 754 mmHg 80%
    15:00 +2°C° 0.9 mm 8 mps 753 mmHg 82%
    16:00 +2°C° 0.9 mm 8 mps 752 mmHg 84%
    17:00 +4°C° 0.7 mm 8 mps 752 mmHg 86%
    18:00 +4°C° 0.7 mm 7 mps 751 mmHg 88%
    19:00 +5°C° 0.7 mm 7 mps 751 mmHg 90%
    20:00 +7°C° 0.5 mm 6 mps 751 mmHg 91%
    21:00 +7°C° 0.5 mm 5 mps 751 mmHg 93%
    22:00 +8°C° 0.5 mm 4 mps 751 mmHg 94%
    23:00 +8°C° 0 mm 4 mps 751 mmHg 94%

    26 October, Thursday

    Time Temperature Precipitation Wind Pressure Humidity
    00:00 +8°C° 0 mm 4 mps 751 mmHg 94%
    01:00 +7°C° 0 mm 4 mps 752 mmHg 94%
    02:00 +7°C° 0 mm 4 mps 752 mmHg 95%
    03:00 +7°C° 0 mm 4 mps 752 mmHg 95%
    04:00 +6°C° 0 mm 4 mps 752 mmHg 95%
    05:00 +7°C° 0 mm 4 mps 752 mmHg 95%
    06:00 +7°C° 0 mm 4 mps 752 mmHg 94%
    07:00 +7°C° 0 mm 4 mps 752 mmHg 94%
    08:00 +8°C° 0 mm 5 mps 752 mmHg 90%
    09:00 +9°C° 0 mm 5 mps 752 mmHg 86%
    10:00 +10°C° 0 mm 6 mps 752 mmHg 83%
    11:00 +10°C° 0 mm 6 mps 752 mmHg 81%
    12:00 +10°C° 0 mm 5 mps 752 mmHg 80%
    13:00 +10°C° 0 mm 5 mps 752 mmHg 78%
    14:00 +10°C° 0 mm 5 mps 751 mmHg 80%
    15:00 +10°C° 0 mm 4 mps 751 mmHg 81%
    16:00 +10°C° 0 mm 4 mps 751 mmHg 82%
    17:00 +8°C° 0 mm 4 mps 751 mmHg 85%
    18:00 +8°C° 0 mm 4 mps 750 mmHg 87%
    19:00 +8°C° 0 mm 4 mps 750 mmHg 89%
    20:00 +8°C° 0 mm 4 mps 750 mmHg 90%
    21:00 +7°C° 0 mm 4 mps 749 mmHg 91%
    22:00 +7°C° 0 mm 4 mps 749 mmHg 92%
    23:00 +7°C° 0 mm 4 mps 749 mmHg 93%

    27 October, Friday

    Time Temperature Precipitation Wind Pressure Humidity
    00:00 +7°C° 0 mm 4 mps 748 mmHg 93%
    01:00 +7°C° 0 mm 4 mps 748 mmHg 94%
    02:00 +7°C° 0 mm 4 mps 747 mmHg 94%
    03:00 +7°C° 0 mm 4 mps 747 mmHg 94%
    04:00 +7°C° 0 mm 4 mps 746 mmHg 94%
    05:00 +7°C° 0 mm 4 mps 746 mmHg 93%
    06:00 +7°C° 0 mm 4 mps 746 mmHg 92%
    07:00 +8°C° 0 mm 4 mps 745 mmHg 91%
    08:00 +8°C° 0.1 mm 5 mps 745 mmHg 88%
    09:00 +8°C° 0.1 mm 5 mps 745 mmHg 85%
    10:00 +9°C° 0.1 mm 5 mps 744 mmHg 82%
    11:00 +9°C° 0.1 mm 5 mps 744 mmHg 80%
    12:00 +9°C° 0.1 mm 6 mps 743 mmHg 77%
    13:00 +9°C° 0.1 mm 6 mps 743 mmHg 75%
    14:00 +9°C° 0.1 mm 5 mps 743 mmHg 77%
    15:00 +10°C° 0.1 mm 4 mps 742 mmHg 79%
    16:00 +8°C° 0.1 mm 4 mps 742 mmHg 80%
    17:00 +7°C° 0 mm 4 mps 741 mmHg 83%
    18:00 +7°C° 0 mm 4 mps 741 mmHg 85%
    19:00 +6°C° 0 mm 4 mps 741 mmHg 88%
    20:00 +6°C° 0 mm 4 mps 741 mmHg 89%
    21:00 +6°C° 0 mm 4 mps 741 mmHg 89%
    22:00 +6°C° 0 mm 4 mps 741 mmHg 90%
    23:00 +6°C° 0.4 mm 4 mps 741 mmHg 90%

    28 October, Saturday

    Time Temperature Precipitation Wind Pressure Humidity
    00:00 +6°C° 0.4 mm 4 mps 741 mmHg 91%
    01:00 +6°C° 0.4 mm 4 mps 741 mmHg 92%
    02:00 +6°C° 0.8 mm 4 mps 741 mmHg 90%
    03:00 +5°C° 0.8 mm 4 mps 741 mmHg 89%
    04:00 +5°C° 0.8 mm 4 mps 741 mmHg 88%
    05:00 +4°C° 0 mm 4 mps 741 mmHg 86%
    06:00 +4°C° 0 mm 4 mps 741 mmHg 85%
    07:00 +4°C° 0 mm 4 mps 742 mmHg 83%
    08:00 +5°C° 0.1 mm 4 mps 742 mmHg 80%
    09:00 +6°C° 0.1 mm 4 mps 742 mmHg 76%
    10:00 +6°C° 0.1 mm 4 mps 742 mmHg 72%
    11:00 +7°C° 0.2 mm 4 mps 742 mmHg 73%
    12:00 +7°C° 0.2 mm 4 mps 741 mmHg 74%
    13:00 +7°C° 0.2 mm 4 mps 741 mmHg 74%
    14:00 +6°C° 0.1 mm 4 mps 741 mmHg 77%
    15:00 +7°C° 0.1 mm 3 mps 740 mmHg 79%
    16:00 +7°C° 0.1 mm 3 mps 740 mmHg 81%
    17:00 +5°C° 0.2 mm 3 mps 740 mmHg 84%
    18:00 +5°C° 0.2 mm 3 mps 740 mmHg 87%
    19:00 +5°C° 0.2 mm 3 mps 740 mmHg 90%
    20:00 +5°C° 0.4 mm 3 mps 739 mmHg 91%
    21:00 +6°C° 0.4 mm 2 mps 739 mmHg 92%
    22:00 +6°C° 0.4 mm 2 mps 739 mmHg 94%
    23:00 +6°C° 0.4 mm 2 mps 738 mmHg 95%

    29 October, Sunday

    Time Temperature Precipitation Wind Pressure Humidity
    00:00 +6°C° 0.4 mm 2 mps 738 mmHg 95%
    01:00 +5°C° 0.4 mm 2 mps 738 mmHg 96%
    02:00 +5°C° 0 mm 2 mps 738 mmHg 96%
    03:00 +6°C° 0 mm 1 mps 738 mmHg 97%
    04:00 +5°C° 0 mm 1 mps 738 mmHg 97%
    05:00 +5°C° 0 mm 1 mps 738 mmHg 97%
    06:00 +5°C° 0 mm 1 mps 739 mmHg 96%
    07:00 +4°C° 0 mm 2 mps 739 mmHg 96%
    08:00 +5°C° 0 mm 2 mps 739 mmHg 91%
    09:00 +6°C° 0 mm 2 mps 740 mmHg 86%
    10:00 +7°C° 0 mm 2 mps 740 mmHg 80%
    11:00 +8°C° 0.1 mm 3 mps 741 mmHg 77%
    12:00 +9°C° 0.1 mm 3 mps 741 mmHg 74%
    13:00 +9°C° 0.1 mm 3 mps 741 mmHg 71%
    14:00 +8°C° 0.1 mm 3 mps 741 mmHg 75%
    15:00 +7°C° 0.1 mm 3 mps 741 mmHg 79%
    16:00 +7°C° 0.1 mm 3 mps 741 mmHg 83%
    17:00 +5°C° 0 mm 3 mps 741 mmHg 85%
    18:00 +4°C° 0 mm 3 mps 741 mmHg 87%
    19:00 +4°C° 0 mm 3 mps 741 mmHg 89%
    20:00 +3°C° 0 mm 3 mps 741 mmHg 89%
    21:00 +3°C° 0 mm 3 mps 741 mmHg 89%
    22:00 +2°C° 0 mm 3 mps 740 mmHg 89%
    23:00 +2°C° 0 mm 3 mps 740 mmHg 88%
    Show more